Location: Oak Glen
(34.0495°N, 116.9470°E)
Time: 20:16:08
(UTC-08:00)

Vanguard 2 - All Passes

Search period start: 16 December 2017 00:00
Search period end: 26 December 2017 00:00
Orbit: 553 x 2939 km, 32.9° (Epoch: 16 December)

Date Brightness Start Highest point End Pass type
(mag) Time Alt. Az. Time Alt. Az. Time Alt. Az.
16 Dec - 01:55:34 10° W 02:01:10 69° S 02:05:14 10° ESE visible
16 Dec - 04:05:42 10° WSW 04:08:54 21° SSW 04:11:58 10° SSE visible
16 Dec - 19:40:48 10° SSW 19:51:32 27° SSE 19:59:05 10° E daylight
16 Dec - 21:50:41 10° SW 22:01:39 54° SSE 22:08:13 10° E daylight
17 Dec - 00:02:42 10° W 00:10:49 80° S 00:15:49 10° E daylight
17 Dec - 02:13:51 10° W 02:19:12 56° SSW 02:23:12 10° ESE visible
17 Dec - 04:24:46 10° WSW 04:26:46 13° SSW 04:28:45 10° S visible
17 Dec - 17:52:47 10° S 17:58:52 13° SE 18:04:11 10° ESE daylight
17 Dec - 19:57:41 10° SSW 20:09:48 35° SSE 20:17:50 10° E daylight
17 Dec - 22:08:45 10° WSW 22:19:50 64° SSE 22:26:20 10° E daylight
18 Dec - 00:21:05 10° W 00:28:58 82° S 00:33:52 10° E daylight
18 Dec - 02:32:10 10° W 02:37:10 42° SSW 02:41:00 10° SE visible
18 Dec - 18:07:13 10° S 18:17:10 20° SSE 18:25:07 10° ESE daylight
18 Dec - 20:15:01 10° SW 20:28:02 44° SSE 20:36:17 10° E daylight
18 Dec - 22:27:01 10° WSW 22:38:01 74° S 22:44:25 10° E daylight
19 Dec - 00:39:27 10° W 00:47:06 77° S 00:51:54 10° ESE daylight
19 Dec - 02:50:37 10° W 02:55:03 29° SSW 02:58:37 10° SE visible
19 Dec - 18:23:08 10° SSW 18:35:27 27° SSE 18:44:37 10° E daylight
19 Dec - 20:32:43 10° SW 20:46:16 54° SSE 20:54:33 10° E daylight
19 Dec - 22:45:23 10° W 22:56:13 80° S 23:02:29 10° E daylight
20 Dec - 00:57:49 10° W 01:05:11 68° SSW 01:09:53 10° ESE daylight
20 Dec - 03:09:19 10° W 03:12:51 19° SSW 03:15:51 10° SSE visible
20 Dec - 16:36:37 10° SSE 16:42:23 12° SE 16:47:41 10° ESE daylight
20 Dec - 18:39:48 10° SSW 18:53:41 35° SSE 19:03:31 10° E daylight
20 Dec - 20:50:42 10° WSW 21:04:29 64° SSE 21:12:42 10° E daylight
20 Dec - 23:03:50 10° W 23:14:24 83° S 23:20:32 10° E daylight
21 Dec - 01:16:12 10° W 01:23:12 55° SSW 01:27:46 10° ESE daylight
21 Dec - 03:28:51 10° WSW 03:30:34 12° SW 03:32:09 10° SSW visible
21 Dec - 16:50:16 10° S 17:00:36 19° SE 17:09:28 10° ESE daylight
21 Dec - 18:56:58 10° SW 19:11:54 44° SSE 19:22:05 10° E daylight
21 Dec - 21:08:54 10° WSW 21:22:43 73° SSE 21:30:49 10° E daylight
21 Dec - 23:22:19 10° W 23:32:35 82° S 23:38:34 10° E daylight
22 Dec - 01:34:37 10° W 01:41:07 42° SSW 01:45:30 10° SE visible
22 Dec - 17:05:50 10° SSW 17:18:47 26° SE 17:29:22 10° E daylight
22 Dec - 19:14:30 10° SW 19:30:08 53° SSE 19:40:26 10° E daylight
22 Dec - 21:27:16 10° WSW 21:40:57 80° S 21:48:55 10° E daylight
22 Dec - 23:40:46 10° W 23:50:45 77° S 23:56:35 10° ESE daylight
23 Dec - 01:53:10 10° W 01:58:55 30° SSW 02:03:00 10° SSE visible
23 Dec - 15:23:13 10° SE 15:25:37 10° SE 15:27:58 10° SE daylight
23 Dec - 17:22:15 10° SSW 17:36:56 34° SSE 17:48:31 10° E daylight
23 Dec - 19:32:21 10° SW 19:48:22 63° SSE 19:58:40 10° E daylight
23 Dec - 21:45:45 10° W 21:59:12 84° S 22:06:59 10° E daylight
23 Dec - 23:59:13 10° W 00:08:50 67° SSW 00:14:32 10° ESE daylight
24 Dec - 02:12:01 10° W 02:16:35 20° SW 02:20:07 10° S visible
24 Dec - 15:34:18 10° S 15:43:43 17° SE 15:52:30 10° ESE daylight
24 Dec - 17:39:12 10° SSW 17:55:05 42° SSE 18:07:13 10° E daylight
24 Dec - 19:50:27 10° WSW 20:06:38 71° SSE 20:16:50 10° E daylight
24 Dec - 22:04:16 10° W 22:17:27 85° S 22:25:04 10° E daylight
25 Dec - 00:17:41 10° W 00:26:50 55° SSW 00:32:23 10° SE daylight
25 Dec - 02:31:37 10° WSW 02:34:09 13° SW 02:36:22 10° SSW visible
25 Dec - 15:49:19 10° S 16:01:45 24° SE 16:13:04 10° E daylight
25 Dec - 17:56:33 10° SW 18:13:16 51° SSE 18:25:42 10° E daylight
25 Dec - 20:08:45 10° WSW 20:24:55 78° SSE 20:34:58 10° E daylight
25 Dec - 22:22:48 10° W 22:35:42 82° S 22:43:08 10° E daylight
